Location: Kellogg
(38.0159°N, 90.0546°W)
Time: 06:41:27
(UTC+00:00)

Vanguard 1 Rocket - Pass Details

Date: 14 September 2024
Orbit: 650 x 4218 km, 34.3° (Epoch: 05 October)

Event Time Altitude Azimuth Distance (km) Brightness Sun altitude
Rises 18:54:15 0° 280° (W) 8,449 12.4 52.5°
Reaches altitude 10° 19:07:31 10° 254° (WSW) 6,982 12.5 51.3°
Maximum altitude 19:13:05 11° 240° (WSW) 6,514 12.5 50.7°
Drops below altitude 10° 19:18:11 10° 225° (SW) 6,236 12.5 50.2°
Sets 19:27:49 0° 196° (SSW) 6,287 12.3 49.1°
